Buckland, AK

5:55 PM AKST on February 21, 2017 (GMT -0900)
Buckland

Weather History for PABL - March, 2013

Change the Weather History Date:

Sunday, March 10, 2013

  Actual Average (PASK) Record (PASK)
Temperature  
Mean Temperature 6 °F -  
Max Temperature 15 °F 4 °F 23 °F (2005)
Min Temperature -4 °F -4 °F -41 °F (1999)
Degree Days  
Heating Degree Days 60    
Moisture  
Dew Point 4 °F    
Average Humidity 84    
Maximum Humidity 93    
Minimum Humidity 73    
Precipitation  
Precipitation 0.00 in - - ()
Sea Level Pressure  
Sea Level Pressure 30.29 in    
Wind  
Wind Speed 11 mph (WNW)    
Max Wind Speed 29 mph    
Max Gust Speed 38 mph    
Visibility 6 miles    
Events      
Averages and records for this station are not official NWS values.
T = Trace of Precipitation, MM = Missing Value Source: NWS Daily Summary

Daily Weather History Graph

Daily Weather History Graph

Search for Another Location

Airport or City:

Trip Planner

Search our weather history database for the weather conditions in past years. The results will help you decide how hot, cold, wet, or windy it might be!

Date:

Astronomy

Mar. 10, 2013 Rise Set
Actual Time 9:21 AM AKDT 8:29 PM AKDT
Civil Twilight 8:30 AM AKDT 9:20 PM AKDT
Nautical Twilight 7:30 AM AKDT 10:21 PM AKDT
Astronomical Twilight 6:24 AM AKDT 11:27 PM AKDT
Moon 8:38 AM AKDT (3/10) 7:51 PM AKDT (3/10)
Length of Visible Light 12h 50m
Length of Day
11h 08m
Waning Crescent, 1% of the Moon is Illuminated
Mar 10
Waning Crescent
Mar 11
New
Mar 19
First Quarter
Mar 27
Full
Apr 2
Last Quarter

Hourly Weather History & Observations

Time (AKDT) Temp. Windchill Dew Point Humidity Pressure Visibility Wind Dir Wind Speed Gust Speed Precip Events Conditions
12:16 AM 12.2 °F 1.7 °F 5.0 °F 73% 29.95 in 10.0 mi SSW 6.9 mph - N/A   Unknown
12:36 AM 12.2 °F 1.7 °F 6.8 °F 79% 29.95 in 10.0 mi South 6.9 mph - N/A   Unknown
12:56 AM 12.2 °F 4.3 °F 6.8 °F 79% 29.95 in 10.0 mi SSW 4.6 mph - N/A   Unknown
1:16 AM 12.2 °F 6.1 °F 6.8 °F 79% 29.96 in 10.0 mi SSW 3.5 mph - N/A   Unknown
1:36 AM 10.4 °F 2.2 °F 6.8 °F 85% 29.96 in 10.0 mi SSW 4.6 mph - N/A   Unknown
1:56 AM 10.4 °F - 6.8 °F 85% 29.96 in 10.0 mi Calm Calm - N/A   Unknown
3:16 AM 12.2 °F 6.1 °F 8.6 °F 85% 29.96 in 10.0 mi SSW 3.5 mph - N/A   Unknown
3:36 AM 12.2 °F 2.9 °F 6.8 °F 79% 29.97 in 10.0 mi SSW 5.8 mph - N/A   Unknown
4:36 AM 12.2 °F 2.9 °F 8.6 °F 85% 29.99 in 10.0 mi SSW 5.8 mph - N/A   Unknown
4:56 AM 14.0 °F 6.5 °F 10.4 °F 86% 29.99 in 10.0 mi SSW 4.6 mph - N/A   Unknown
5:16 AM 14.0 °F 6.5 °F 8.6 °F 79% 30.00 in 5.0 mi SSW 4.6 mph - N/A   Unknown
5:36 AM 14.0 °F 8.2 °F 8.6 °F 79% 30.01 in 2.5 mi SSW 3.5 mph - N/A   Unknown
5:56 AM 12.2 °F - 10.4 °F 92% 30.02 in 2.0 mi Calm Calm - N/A   Unknown
6:16 AM 12.2 °F - 10.4 °F 92% 30.02 in 7.0 mi Calm Calm - N/A   Unknown
6:36 AM 14.0 °F 8.2 °F 10.4 °F 86% 30.03 in 1.5 mi NW 3.5 mph - N/A   Unknown
6:56 AM 12.2 °F 6.1 °F 10.4 °F 92% 30.05 in 3.0 mi NNW 3.5 mph - N/A   Unknown
7:16 AM 12.2 °F 6.1 °F 10.4 °F 92% 30.06 in 10.0 mi NW 3.5 mph - N/A   Unknown
7:36 AM 12.2 °F 2.9 °F 10.4 °F 92% 30.07 in 10.0 mi NNW 5.8 mph - N/A   Unknown
7:56 AM 12.2 °F 2.9 °F 10.4 °F 92% 30.07 in 10.0 mi North 5.8 mph - N/A   Unknown
8:16 AM 12.2 °F 2.9 °F 10.4 °F 92% 30.08 in 3.0 mi NW 5.8 mph - N/A   Unknown
8:36 AM 12.2 °F 0.7 °F 8.6 °F 85% 30.09 in 5.0 mi NW 8.1 mph - N/A   Unknown
8:56 AM 12.2 °F 0.7 °F 10.4 °F 92% 30.10 in 10.0 mi NW 8.1 mph - N/A   Unknown
9:16 AM 12.2 °F 2.9 °F 8.6 °F 85% 30.11 in 10.0 mi NNW 5.8 mph - N/A   Unknown
9:36 AM 12.2 °F 1.7 °F 10.4 °F 92% 30.12 in 10.0 mi NW 6.9 mph - N/A   Unknown
9:56 AM 12.2 °F 2.9 °F 10.4 °F 92% 30.13 in 10.0 mi NW 5.8 mph - N/A   Unknown
10:16 AM 12.2 °F 0.7 °F 8.6 °F 85% 30.15 in 9.0 mi NNW 8.1 mph - N/A   Unknown
10:36 AM 12.2 °F -1.0 °F 10.4 °F 92% 30.16 in 10.0 mi NNW 10.4 mph - N/A   Unknown
10:56 AM 12.2 °F -2.5 °F 8.6 °F 85% 30.17 in 10.0 mi NNW 12.7 mph - N/A   Unknown
11:16 AM 12.2 °F -3.1 °F 8.6 °F 85% 30.19 in 10.0 mi NW 13.8 mph - N/A   Unknown
11:36 AM 12.2 °F -3.7 °F 8.6 °F 85% 30.20 in 10.0 mi NW 15.0 mph - N/A   Unknown
11:56 AM 12.2 °F -1.8 °F 10.4 °F 92% 30.22 in 6.0 mi NNW 11.5 mph - N/A   Unknown
12:16 PM 14.0 °F 1.2 °F 10.4 °F 86% 30.24 in 3.0 mi NNW 10.4 mph - N/A   Unknown
12:36 PM 14.0 °F 5.1 °F 10.4 °F 86% 30.25 in 1.8 mi NNW 5.8 mph - N/A   Unknown
12:56 PM 15.8 °F 0.9 °F 14.0 °F 93% 30.26 in 2.5 mi NW 15.0 mph - N/A   Unknown
1:16 PM 15.8 °F -1.1 °F 14.0 °F 93% 30.28 in 2.0 mi NW 19.6 mph - N/A   Unknown
1:36 PM 15.8 °F -1.9 °F 10.4 °F 79% 30.30 in 1.8 mi NW 21.9 mph 25.3 mph N/A   Unknown
1:56 PM 12.2 °F -6.3 °F 8.6 °F 85% 30.32 in 2.5 mi WNW 20.7 mph - N/A   Unknown
2:16 PM 12.2 °F -7.1 °F 8.6 °F 85% 30.33 in 2.0 mi WNW 23.0 mph - N/A   Unknown
2:36 PM 10.4 °F -9.5 °F 6.8 °F 85% 30.35 in 1.2 mi WNW 23.0 mph 31.1 mph N/A   Unknown
2:56 PM 10.4 °F -10.3 °F 6.8 °F 85% 30.36 in 1.0 mi WNW 25.3 mph 32.2 mph N/A   Unknown
3:16 PM 8.6 °F -13.4 °F 5.0 °F 85% 30.37 in 0.8 mi WNW 27.6 mph 35.7 mph N/A   Unknown
3:36 PM 8.6 °F -13.4 °F 3.2 °F 79% 30.39 in 0.8 mi WNW 27.6 mph - N/A   Unknown
3:56 PM 6.8 °F -16.2 °F 1.4 °F 79% 30.40 in 0.5 mi WNW 28.8 mph 35.7 mph N/A   Unknown
4:16 PM 5.0 °F -18.7 °F 1.4 °F 85% 30.41 in 0.5 mi WNW 28.8 mph 38.0 mph N/A   Unknown
4:36 PM 3.2 °F -21.1 °F -0.4 °F 85% 30.41 in 0.5 mi WNW 28.8 mph 35.7 mph N/A   Unknown
4:56 PM 3.2 °F -19.9 °F -0.4 °F 85% 30.43 in 0.8 mi WNW 25.3 mph 31.1 mph N/A   Unknown
5:16 PM 3.2 °F -19.5 °F -2.2 °F 78% 30.44 in 1.2 mi WNW 24.2 mph 29.9 mph N/A   Unknown
5:36 PM 1.4 °F -22.3 °F -2.2 °F 85% 30.45 in 1.0 mi WNW 25.3 mph 34.5 mph N/A   Unknown
5:56 PM 1.4 °F -22.7 °F -2.2 °F 85% 30.47 in 1.5 mi WNW 26.5 mph 32.2 mph N/A   Unknown
6:16 PM 1.4 °F -22.3 °F -2.2 °F 85% 30.47 in 1.8 mi WNW 25.3 mph 33.4 mph N/A   Unknown
6:36 PM 1.4 °F -21.0 °F -2.2 °F 85% 30.49 in 3.0 mi WNW 21.9 mph 26.5 mph N/A   Unknown
6:56 PM 1.4 °F -19.4 °F -2.2 °F 85% 30.51 in 4.0 mi WNW 18.4 mph 26.5 mph N/A   Unknown
7:16 PM 1.4 °F -18.2 °F -4.0 °F 78% 30.52 in 5.0 mi West 16.1 mph 25.3 mph N/A   Unknown
7:36 PM -0.4 °F -22.3 °F -5.8 °F 78% 30.53 in 5.0 mi WNW 19.6 mph 25.3 mph N/A   Unknown
7:56 PM -0.4 °F -21.2 °F -5.8 °F 78% 30.54 in 7.0 mi WNW 17.3 mph - N/A   Unknown
8:16 PM -0.4 °F -20.5 °F -5.8 °F 78% 30.54 in 10.0 mi WNW 16.1 mph 21.9 mph N/A   Unknown
8:36 PM -0.4 °F -21.2 °F -5.8 °F 78% 30.55 in 10.0 mi WNW 17.3 mph 24.2 mph N/A   Unknown
8:56 PM -0.4 °F -21.2 °F -5.8 °F 78% 30.57 in 10.0 mi WNW 17.3 mph 21.9 mph N/A   Unknown
9:16 PM -0.4 °F -21.2 °F -5.8 °F 78% 30.58 in 10.0 mi WNW 17.3 mph 21.9 mph N/A   Unknown
9:36 PM -0.4 °F -21.2 °F -5.8 °F 78% 30.59 in 10.0 mi WNW 17.3 mph - N/A   Unknown
9:56 PM -0.4 °F -21.2 °F -5.8 °F 78% 30.60 in 10.0 mi WNW 17.3 mph - N/A   Unknown
10:16 PM -2.2 °F -24.1 °F -5.8 °F 85% 30.60 in 10.0 mi WNW 18.4 mph - N/A   Unknown
10:36 PM -2.2 °F -23.5 °F -7.6 °F 78% 30.61 in 10.0 mi WNW 17.3 mph - N/A   Unknown
10:56 PM -2.2 °F -24.7 °F -7.6 °F 78% 30.61 in 10.0 mi WNW 19.6 mph - N/A   Unknown
11:16 PM -2.2 °F -23.5 °F -7.6 °F 78% 30.62 in 10.0 mi WNW 17.3 mph - N/A   Unknown
11:36 PM -2.2 °F -23.5 °F -7.6 °F 78% 30.63 in 10.0 mi WNW 17.3 mph - N/A   Unknown
11:56 PM -2.2 °F -22.2 °F -7.6 °F 78% 30.64 in 10.0 mi WNW 15.0 mph - N/A   Unknown
12:16 AM -2.2 °F -23.5 °F -7.6 °F 78% 30.65 in 10.0 mi WNW 17.3 mph - N/A   Unknown
12:36 AM -4.0 °F -24.5 °F -7.6 °F 85% 30.66 in 10.0 mi NW 15.0 mph - N/A   Unknown
12:56 AM -4.0 °F -24.5 °F -7.6 °F 85% 30.66 in 10.0 mi NW 15.0 mph - N/A   Unknown